CW0565 Weather Reports


time (UTC)temp
C
wind
direction
speed
KPH
gust
KPH
rain 1hr
cm
rain 24hr
cm
rain mn
cm
humidity
%
barometer
mb
20260506030010 -1 355 6.4 12.9 0.00 0.00 0.00 77 1012.7
20260506024510 -1 355 6.4 9.7 0.00 0.00 0.00 77 1012.7
20260506023010 -1 355 8.0 12.9 0.00 0.00 0.00 75 1012.8
20260506021509 -1 360 8.0 12.9 0.00 0.00 0.00 76 1012.8
20260506020010 -1 360 8.0 9.7 0.00 0.00 0.00 76 1012.7
20260506014511 -1 355 6.4 8.0 0.00 0.00 0.00 75 1012.7
20260506013011 -1 360 8.0 12.9 0.00 0.00 0.00 73 1012.6
20260506011510 -1 355 9.7 12.9 0.00 0.00 0.00 73 1012.6
20260506010011 -1 355 9.7 12.9 0.00 0.00 0.00 72 1012.6
20260506004509 0 360 8.0 12.9 0.00 0.00 0.00 71 1012.6
20260506003009 0 5 8.0 9.7 0.00 0.00 0.00 69 1012.6
20260506001509 0 11 4.8 12.9 0.00 0.00 0.00 68 1012.5
20260506000010 0 9 6.4 9.7 0.00 0.00 0.00 67 1012.5
20260505234518 0 5 9.7 12.9 0.00 0.00 0.00 65 1012.5
20260505233015 1 16 4.8 8.0 0.00 0.00 0.00 62 1012.5
20260505231513 1 17 4.8 8.0 0.00 0.00 0.00 64 1012.5
20260505230012 1 21 4.8 8.0 0.00 0.00 0.00 62 1012.5
20260505224510 2 24 1.6 4.8 0.00 0.00 0.00 58 1012.5
20260505223011 2 24 1.6 6.4 0.00 0.00 0.00 57 1012.5
20260505221504 3 24 3.2 8.0 0.00 0.00 0.00 53 1012.4
20260505220011 3 28 4.8 9.7 0.00 0.00 0.00 53 1012.4
20260505214510 3 27 3.2 12.9 0.00 0.00 0.00 53 1012.4
20260505213012 3 24 4.8 9.7 0.00 0.00 0.00 54 1012.4
20260505211509 4 11 6.4 8.0 0.00 0.00 0.00 49 1012.4
20260505210011 4 9 4.8 11.3 0.00 0.00 0.00 47 1012.4
20260505204522 5 321 3.2 8.0 0.00 0.00 0.00 44 1012.3
20260505203009 5 321 3.2 6.4 0.00 0.00 0.00 42 1012.2
20260505201510 5 292 3.2 8.0 0.00 0.00 0.00 40 1012.1
20260505200019 6 288 3.2 9.7 0.00 0.00 0.00 38 1012.0
20260505194509 6 281 3.2 16.1 0.00 0.00 0.00 36 1011.8
20260505193010 7 349 6.4 16.1 0.00 0.00 0.00 36 1011.7
20260505191510 7 332 4.8 16.1 0.00 0.00 0.00 34 1011.7
20260505190010 7 333 9.7 20.9 0.00 0.00 0.00 34 1011.4
20260505183029 8 349 8.0 24.1 0.00 0.00 0.00 33 1011.0
20260505181511 10 298 9.7 19.3 0.00 0.00 0.00 29 1010.9
20260505180010 10 348 11.3 29.0 0.00 0.00 0.00 28 1010.7
20260505173018 10 355 11.3 20.9 0.00 0.00 0.00 27 1010.5
20260505171509 10 5 9.7 20.9 0.00 0.00 0.00 28 1010.5
20260505170011 11 317 8.0 24.1 0.00 0.00 0.00 26 1010.3
20260505164510 11 336 6.4 30.6 0.00 0.00 0.00 25 1010.3
20260505163010 11 321 1.6 16.1 0.00 0.00 0.00 25 1010.2
20260505161509 11 351 8.0 20.9 0.00 0.00 0.00 26 1010.2
20260505153009 12 322 11.3 24.1 0.00 0.00 0.00 26 1010.1
20260505151511 12 338 11.3 20.9 0.00 0.00 0.00 24 1010.0
20260505124509 11 283 9.7 19.3 0.00 0.00 0.00 28 1010.4
20260505123009 11 226 9.7 24.1 0.00 0.00 0.00 27 1010.5
20260505121509 11 289 3.2 20.9 0.00 0.00 0.00 28 1010.4
20260505120006 11 263 12.9 20.9 0.00 0.00 0.00 27 1010.7
20260505114509 10 272 6.4 19.3 0.00 0.00 0.00 28 1010.8
20260505113009 10 324 11.3 17.7 0.00 0.00 0.00 27 1010.9
20260505111509 10 272 12.9 22.5 0.00 0.00 0.00 26 1010.9
20260505101516 11 348 8.0 20.9 0.00 0.00 0.00 27 1011.0
20260505100012 11 17 4.8 27.4 0.00 0.00 0.00 26 1011.0
20260505094519 11 299 4.8 16.1 0.00 0.00 0.00 25 1011.2
20260505093009 11 326 3.2 19.3 0.00 0.00 0.00 27 1011.1
20260505091510 12 305 1.6 12.9 0.00 0.00 0.00 27 1011.2
20260505090009 11 17 6.4 16.1 0.00 0.00 0.00 27 1011.2
20260505084509 10 51 4.8 11.3 0.00 0.00 0.00 30 1011.3
20260505083009 10 292 4.8 14.5 0.00 0.00 0.00 31 1011.4
20260505081510 10 51 6.4 14.5 0.00 0.00 0.00 29 1011.4
20260505080009 8 22 11.3 20.9 0.00 0.00 0.00 33 1011.4
20260505074509 7 14 11.3 27.4 0.00 0.00 0.00 36 1011.4
20260505073010 6 42 12.9 27.4 0.00 0.00 0.00 37 1011.4
20260505071509 6 360 11.3 24.1 0.00 0.00 0.00 39 1011.4
20260505070009 6 11 11.3 24.1 0.00 0.00 0.00 40 1011.5
20260505064510 5 5 17.7 25.7 0.00 0.00 0.00 42 1011.4
20260505063011 5 21 9.7 20.9 0.00 0.00 0.00 44 1011.3
20260505061510 5 5 9.7 27.4 0.00 0.00 0.00 47 1011.2
20260505060010 4 5 14.5 30.6 0.00 0.00 0.00 48 1011.2
20260505054510 4 12 6.4 19.3 0.00 0.00 0.00 51 1011.1
20260505053014 3 35 6.4 16.1 0.00 0.00 0.00 55 1011.1
20260505051513 3 50 9.7 16.1 0.00 0.00 0.00 55 1011.3
20260505041514 0 355 4.8 9.7 0.00 0.00 0.00 68 1011.2
20260505040010 0 355 6.4 12.9 0.00 0.00 0.00 68 1010.8
20260505034514 1 350 4.8 8.0 0.00 0.00 0.00 67 1010.9
20260505033010 1 350 3.2 8.0 0.00 0.00 0.00 66 1010.7
20260505031523 1 350 1.6 14.5 0.00 0.00 0.00 63 1010.7